Regional Weather Roundup
Issued by NWS

Home | Current Version | Previous Version | Graphics & Text | Print | Product List | Glossary On
Versions: 1 2 3 4 5 6 7 8 9 10 11 12 13 14 15 16 17 18 19 20 21 22 23 24 25 26 27 28 29 30 31 32 33 34 35 36 37 38 39 40 41 42 43 44 45 46 47 48 49 50
000
ASUS45 KABQ 021001
RWRNM
NEW MEXICO REGIONAL WEATHER ROUNDUP
NATIONAL WEATHER SERVICE ALBUQUERQUE NM
300 AM MST FRI DEC 02 2016

NOTE: "FAIR" MEANS FEW OR NO CLOUDS BELOW 12,000 FEET AGL WITH NO
       SIGNIFICANT WEATHER OR OBSTRUCTIONS TO VISION.

      THIS PRODUCT IS RELEASED AS TWO VERSIONS.  ONE VERSION NEAR
      THE TOP OF THE HOUR CONTAINING PRELIMINARY DATA FROM ALBUQUERQUE
      AND OTHER STATIONS.  A FINAL VERSION WITH ADDITIONAL DATA IS
      ISSUED ABOUT 10 MINUTES AFTER THE HOUR.

NMZ501-503-504-510>518-021100-
NORTHWEST PLATEAU/NORTHCENTRAL MOUNTAINS

CITY           SKY/WX    TMP DP  RH WIND       PRES   REMARKS
FARMINGTON     FAIR      21  16  81 E7        29.96F WCI  12
LOS ALAMOS     CLOUDY    29  12  49 NW3       29.96F
SANTA FE       FAIR      25  15  66 N13       29.95F WCI  14
TAOS           MOCLDY    19   9  63 N7        29.98F WCI  10
ANGEL FIRE     MOCLDY    11   7  84 CALM      29.99F

$$
NMZ402-403-502-505>509-021100-
WESTCENTRAL MOUNTAINS/SOUTHWEST MOUNTAINS

CITY           SKY/WX    TMP DP  RH WIND       PRES   REMARKS
GALLUP         MOCLDY    22  19  89 CALM      29.93F
GRANTS         CLOUDY    23  19  83 CALM      29.95F

$$
NMZ407-409-411-412-021100-
SOUTHERN DESERTS

CITY           SKY/WX    TMP DP  RH WIND       PRES   REMARKS
DEMING         FAIR      31  20  63 NW3       29.90F
LAS CRUCES     FAIR      35  22  60 NW5       29.91F WCI  31
HOLLOMAN AFB   FAIR      33  15  47 NE3       29.95F
T OR C         FAIR      36  16  44 N6        29.91F WCI  31

$$
NMZ519>523-021100-
CENTRAL VALLEYS/CENTRAL HIGHLANDS

CITY           SKY/WX    TMP DP  RH WIND       PRES   REMARKS
ALBUQUERQUE    CLOUDY    31  16  54 N8        29.95F WCI  23
DOUBLE EAGLE   MOCLDY    28  15  57 N3        29.96S
MORIARTY ARPT  CLOUDY    23  16  74 CALM      29.99S
CLINES CORNERS CLOUDY    27  12  53 E8        29.98R WCI  19
BELEN          CLOUDY    29  16  57 NW5       29.95S WCI  24
SOCORRO        FAIR      32  14  47 NW9G16    29.96S WCI  24

$$
NMZ524>526-539-540-021100-
SOUTHCENTRAL MOUNTAINS

CITY           SKY/WX    TMP DP  RH WIND       PRES   REMARKS
RUIDOSO        FAIR      32  12  43 SE3       29.98S

$$
NMZ527>531-021100-
NORTHEAST HIGHLANDS/NORTHEAST PLAINS

CITY           SKY/WX    TMP DP  RH WIND       PRES   REMARKS
LAS VEGAS      FAIR      20  12  71 N7        29.99F WCI  11
RATON          MOCLDY    19   9  65 NE6       30.02F WCI  11
CLAYTON        FAIR      31  16  54 N5        30.05S WCI  26

$$
NMZ532>537-021100-
EASTCENTRAL PLAINS

CITY           SKY/WX    TMP DP  RH WIND       PRES   REMARKS
TUCUMCARI      FAIR      32  15  49 NE10      30.01F WCI  24
CANNON AFB     FAIR      35  15  43 E9        29.99S WCI  27
CLOVIS AIRPORT FAIR      28  12  50 NE10      30.00R WCI  19

$$
NMZ028-029-538-021100-
SOUTHEAST PLAINS

CITY           SKY/WX    TMP DP  RH WIND       PRES   REMARKS
ROSWELL        FAIR      28  16  60 W5        29.94F WCI  23
ARTESIA        FAIR      32  19  59 W7        29.96S WCI  26
CARLSBAD       FAIR      35  24  64 NW9       29.93F WCI  28
HOBBS          FAIR      32  25  74 N7        29.96F WCI  26


$$




USA.gov is the U.S. government's official web portal to all federal, state and local government web resources and services.